Location: Marsån
(66.4167°N, 22.2833°E)
Time: 07:42:58
(UTC+00:00)

Cosmos 1151 Rocket - Pass Details

Date: 24 February 2024
Orbit: 590 x 610 km, 82.5° (Epoch: 20 April)

Event Time Altitude Azimuth Distance (km) Brightness Sun altitude
Rises 19:13:52 0° 341° (NNW) 2,847 7.2 -23.0°
Reaches altitude 10° 19:16:08 10° 336° (NNW) 1,939 6.4 -23.2°
Maximum altitude 19:20:13 45° 264° (W) 812 3.9 -23.5°
Enters shadow 19:21:48 31° 212° (SSW) 1,058 4.2 -23.6°
